Tracking 30995 objects as of 5-Jul-2025
HD Live streaming from Space Station
objects crossing your sky now

DELTA 1 DEB

Track DELTA 1 DEB now!
10-day predictions


NORAD ID: 12168
Int'l Code: 1978-026H
Perigee: 795.2 km
Apogee: 1,050.0 km
Inclination: 98.7 °
Period: 103.3 minutes
Semi major axis: 7293 km
RCS: 0.1563 m2 (medium)
Launch date: March 5, 1978
Source: United States (US)
Launch site: AIR FORCE WESTERN TEST RANGE (AFWTR)

Note: This is SATELLITE DEBRIS
Your satellite tracking list
ARIANE 5 DEB (SYLDA)
Track 1 satellite(s)




NASA's NSSDC Master Catalog

Two Line Element Set (TLE):
1 12168U 78026H   25186.53208338  .00000308  00000-0  23312-3 0  9990
2 12168  98.7118  15.7377 0174613  44.1445 317.3502 13.93766694252462
Source of the keplerian elements: AFSPC